Change the Weather History Date:

Tuesday, October 8, 2013

  Actual Average (KLJF) Record (KLJF)
Temperature  
Mean Temperature 64 °F -  
Max Temperature 78 °F 61 °F 87 °F (2010)
Min Temperature 49 °F 40 °F 22 °F (1989)
Degree Days  
Heating Degree Days 2    
Growing Degree Days 14 (Base 50)    
Moisture  
Dew Point 43 °F    
Average Humidity 52    
Maximum Humidity 79    
Minimum Humidity 27    
Precipitation  
Precipitation 0.00 in - - ()
Sea Level Pressure  
Sea Level Pressure 29.82 in    
Wind  
Wind Speed 11 mph (SSE)    
Max Wind Speed 23 mph    
Max Gust Speed 33 mph    
Visibility 8 miles    
Events      
Averages and records for this station are not official NWS values.
T = Trace of Precipitation, MM = Missing Value Source: NWS Daily Summary

Daily Weather History Graph

Daily Weather History Graph

Search for Another Location

Airport or City:

Trip Planner

Search our weather history database for the weather conditions in past years. The results will help you decide how hot, cold, wet, or windy it might be!

Date:

Astronomy

Oct. 08, 2013 Rise Set
Actual Time 7:26 AM CDT 6:45 PM CDT
Civil Twilight 6:56 AM CDT 7:15 PM CDT
Nautical Twilight 6:22 AM CDT 7:49 PM CDT
Astronomical Twilight 5:48 AM CDT 8:23 PM CDT
Moon 11:32 AM CDT (10/8) 9:11 PM CDT (10/8)
Length of Visible Light 12h 18m
Length of Day
11h 19m
Waxing Crescent, 16% of the Moon is Illuminated
Oct 8
Waxing Crescent
Oct 11
First Quarter
Oct 18
Full
Oct 26
Last Quarter
Nov 3
New

Hourly Weather History & Observations

Time (CDT) Temp. Dew Point Humidity Pressure Visibility Wind Dir Wind Speed Gust Speed Precip Events Conditions
12:13 AM 52.7 °F 41.0 °F 64% 29.93 in 7.0 mi SE 9.2 mph - N/A   Clear
12:33 AM 52.0 °F 41.4 °F 67% 29.93 in 7.0 mi SE 8.1 mph - N/A   Clear
12:53 AM 51.8 °F 41.5 °F 68% 29.92 in 10.0 mi SE 6.9 mph - N/A   Clear
1:13 AM 51.8 °F 41.7 °F 68% 29.92 in 10.0 mi SE 8.1 mph - N/A   Clear
1:33 AM 51.6 °F 41.9 °F 69% 29.91 in 10.0 mi SE 10.4 mph - N/A   Clear
1:52 AM 51.3 °F 42.1 °F 71% 29.91 in 10.0 mi SE 9.2 mph - N/A   Clear
2:13 AM 50.9 °F 42.3 °F 72% 29.90 in 10.0 mi SE 8.1 mph - N/A   Clear
2:33 AM 50.4 °F 42.6 °F 75% 29.90 in 10.0 mi SE 8.1 mph - N/A   Clear
2:53 AM 50.0 °F 43.0 °F 77% 29.89 in 7.0 mi SE 6.9 mph - N/A   Clear
3:12 AM 50.0 °F 43.3 °F 78% 29.89 in 10.0 mi SE 6.9 mph - N/A   Clear
3:33 AM 49.5 °F 43.3 °F 79% 29.88 in 10.0 mi SE 6.9 mph - N/A   Clear
3:53 AM 49.8 °F 43.5 °F 79% 29.88 in 10.0 mi SSE 8.1 mph - N/A   Clear
4:13 AM 50.0 °F 43.3 °F 78% 29.87 in 7.0 mi SSE 8.1 mph - N/A   Clear
4:33 AM 49.6 °F 43.3 °F 79% 29.86 in 7.0 mi SE 9.2 mph - N/A   Clear
4:52 AM 50.0 °F 43.7 °F 79% 29.86 in 10.0 mi SE 9.2 mph - N/A   Clear
5:13 AM 50.0 °F 43.7 °F 79% 29.85 in 10.0 mi SSE 10.4 mph - N/A   Clear
5:33 AM 50.2 °F 43.2 °F 77% 29.84 in 10.0 mi SE 10.4 mph - N/A   Clear
5:53 AM 50.2 °F 43.2 °F 77% 29.84 in 10.0 mi SE 10.4 mph - N/A   Clear
6:12 AM 51.3 °F 42.8 °F 73% 29.84 in 10.0 mi SSE 10.4 mph - N/A   Clear
6:33 AM 50.9 °F 42.8 °F 74% 29.83 in 10.0 mi SSE 11.5 mph - N/A   Clear
6:53 AM 51.3 °F 42.4 °F 72% 29.83 in 10.0 mi SSE 12.7 mph 17.3 mph N/A   Clear
7:13 AM 51.3 °F 42.3 °F 71% 29.83 in 10.0 mi SSE 11.5 mph 17.3 mph N/A   Clear
7:32 AM 51.8 °F 42.1 °F 69% 29.82 in 10.0 mi SSE 12.7 mph - N/A   Clear
7:53 AM 52.2 °F 41.9 °F 68% 29.82 in 10.0 mi SSE 13.8 mph - N/A   Clear
8:13 AM 52.7 °F 41.9 °F 67% 29.82 in 10.0 mi SSE 12.7 mph 19.6 mph N/A   Clear
8:32 AM 53.6 °F 42.1 °F 65% 29.82 in 10.0 mi SSE 12.7 mph - N/A   Clear
8:53 AM 55.6 °F 42.4 °F 61% 29.81 in 10.0 mi SSE 12.7 mph - N/A   Clear
9:13 AM 58.3 °F 42.1 °F 55% 29.81 in 10.0 mi South 11.5 mph 19.6 mph N/A   Clear
9:32 AM 59.7 °F 42.1 °F 52% 29.81 in 10.0 mi South 12.7 mph 24.2 mph N/A   Clear
9:53 AM 60.6 °F 42.4 °F 51% 29.80 in 10.0 mi South 12.7 mph 19.6 mph N/A   Clear
10:13 AM 62.6 °F 42.6 °F 48% 29.80 in 10.0 mi South 13.8 mph 20.7 mph N/A   Clear
10:32 AM 64.0 °F 42.8 °F 46% 29.79 in 10.0 mi South 15.0 mph 25.3 mph N/A   Clear
10:53 AM 65.3 °F 42.8 °F 44% 29.79 in 10.0 mi South 11.5 mph 24.2 mph N/A   Clear
11:13 AM 67.3 °F 43.3 °F 42% 29.79 in 7.0 mi South 15.0 mph 23.0 mph N/A   Clear
11:33 AM 68.9 °F 42.8 °F 39% 29.79 in 7.0 mi South 13.8 mph 21.9 mph N/A   Clear
11:53 AM 70.5 °F 43.0 °F 37% 29.77 in 10.0 mi South 17.3 mph 25.3 mph N/A   Clear
12:13 PM 72.3 °F 42.4 °F 34% 29.77 in 7.0 mi South 17.3 mph 26.5 mph N/A   Clear
12:33 PM 72.5 °F 42.1 °F 33% 29.76 in 10.0 mi South 15.0 mph 28.8 mph N/A   Clear
12:53 PM 73.4 °F 42.1 °F 32% 29.76 in 5.0 mi South 18.4 mph 25.3 mph N/A   Haze
1:12 PM 75.0 °F 42.8 °F 32% 29.76 in 5.0 mi South 20.7 mph 27.6 mph N/A   Haze
1:33 PM 75.2 °F 42.6 °F 31% 29.75 in 7.0 mi South 13.8 mph 28.8 mph N/A   Clear
1:53 PM 74.8 °F 43.0 °F 32% 29.75 in 10.0 mi South 18.4 mph 27.6 mph N/A   Clear
2:13 PM 77.0 °F 42.8 °F 29% 29.74 in 7.0 mi South 19.6 mph 31.1 mph N/A   Clear
2:33 PM 77.0 °F 41.5 °F 28% 29.74 in 5.0 mi South 13.8 mph 33.4 mph N/A   Haze
2:52 PM 77.5 °F 42.4 °F 29% 29.74 in 5.0 mi South 13.8 mph 26.5 mph N/A   Haze
3:13 PM 77.7 °F 41.4 °F 27% 29.74 in 5.0 mi South 20.7 mph 28.8 mph N/A   Haze
3:32 PM 78.3 °F 42.1 °F 27% 29.74 in 4.0 mi South 23.0 mph 33.4 mph N/A   Haze
3:53 PM 77.9 °F 41.4 °F 27% 29.74 in 3.0 mi South 17.3 mph 28.8 mph N/A   Haze
4:12 PM 77.9 °F 41.0 °F 27% 29.74 in 5.0 mi South 19.6 mph 26.5 mph N/A   Haze
4:33 PM 76.1 °F 40.6 °F 28% 29.74 in 5.0 mi South 13.8 mph 26.5 mph N/A   Haze
4:53 PM 77.2 °F 41.7 °F 28% 29.74 in 5.0 mi South 17.3 mph 23.0 mph N/A   Haze
5:12 PM 76.5 °F 42.1 °F 29% 29.74 in 5.0 mi South 16.1 mph 21.9 mph N/A   Haze
5:33 PM 74.3 °F 40.1 °F 29% 29.74 in 4.0 mi South 12.7 mph 26.5 mph N/A   Haze
5:53 PM 73.4 °F 40.8 °F 31% 29.76 in 7.0 mi South 12.7 mph 18.4 mph N/A   Clear
6:13 PM 72.0 °F 41.4 °F 33% 29.77 in 7.0 mi South 9.2 mph - N/A   Clear
6:32 PM 70.7 °F 42.1 °F 35% 29.77 in 5.0 mi South 5.8 mph - N/A   Haze
6:53 PM 69.8 °F 42.8 °F 38% 29.78 in 5.0 mi South 5.8 mph - N/A   Haze
7:12 PM 68.4 °F 43.7 °F 41% 29.79 in 7.0 mi South 5.8 mph - N/A   Clear
7:33 PM 67.1 °F 44.1 °F 43% 29.80 in 7.0 mi South 3.5 mph - N/A   Clear
7:53 PM 65.8 °F 44.4 °F 46% 29.81 in 7.0 mi SSE 4.6 mph - N/A   Clear
8:13 PM 64.8 °F 44.6 °F 48% 29.81 in 7.0 mi SSE 6.9 mph - N/A   Clear
8:33 PM 63.9 °F 45.0 °F 50% 29.82 in 7.0 mi SSE 5.8 mph - N/A   Clear
8:53 PM 63.3 °F 44.8 °F 51% 29.82 in 7.0 mi SSE 8.1 mph - N/A   Clear
9:13 PM 63.0 °F 44.8 °F 51% 29.82 in 5.0 mi SSE 9.2 mph - N/A   Haze
9:33 PM 62.6 °F 44.8 °F 52% 29.83 in 10.0 mi South 8.1 mph - N/A   Clear
9:52 PM 61.7 °F 45.0 °F 54% 29.84 in 7.0 mi SSE 8.1 mph - N/A   Clear
10:12 PM 61.3 °F 44.6 °F 54% 29.84 in 10.0 mi South 8.1 mph - N/A   Clear
10:33 PM 62.6 °F 43.9 °F 50% 29.84 in 10.0 mi South 9.2 mph - N/A   Clear
10:52 PM 63.5 °F 43.3 °F 48% 29.85 in 10.0 mi South 9.2 mph 17.3 mph N/A   Clear
11:13 PM 62.8 °F 43.5 °F 49% 29.85 in 10.0 mi South 10.4 mph 17.3 mph N/A   Clear
11:33 PM 62.6 °F 43.7 °F 50% 29.86 in 10.0 mi South 11.5 mph 18.4 mph N/A   Clear
11:53 PM 62.6 °F 43.7 °F 50% 29.87 in 10.0 mi South 13.8 mph 17.3 mph N/A   Clear